,,PA_Meas_PMT16A,,PR_Meas_QMR101_102,,RH_Meas_QMH101,,SR_Meas_QMS101,,TA_Meas_QMH101,,GenWind,,GenWind,
time,status,PA,status,PR,status,RH,status,SR,status,TA,status,DirAvg,status,SpdAvg,
2012-09-27, 00:00:05,VALID,919.743,VALID,0,VALID,95.4909,VALID,0.107441,VALID,19.6848,VALID,346,VALID,0,
2012-09-27, 00:01:05,VALID,919.748,VALID,0,VALID,95.5062,VALID,0,VALID,19.6653,VALID,345,VALID,0,
2012-09-27, 00:02:05,VALID,919.741,VALID,0,VALID,95.5367,VALID,0,VALID,19.6653,VALID,345,VALID,0,
2012-09-27, 00:03:05,VALID,919.728,VALID,0,VALID,95.6281,VALID,0,VALID,19.6653,VALID,345,VALID,0,
2012-09-27, 00:04:05,VALID,919.724,VALID,0,VALID,95.651,VALID,0,VALID,19.6848,VALID,33,VALID,0,
2012-09-27, 00:05:05,VALID,919.732,VALID,0,VALID,95.6662,VALID,0,VALID,19.6848,VALID,16,VALID,0,
2012-09-27, 00:06:05,VALID,919.724,VALID,0,VALID,95.6739,VALID,0,VALID,19.7253,VALID,12,VALID,0,
2012-09-27, 00:07:05,VALID,919.731,VALID,0,VALID,95.6205,VALID,0,VALID,19.7043,VALID,12,VALID,0,
2012-09-27, 00:08:04,VALID,919.691,VALID,0,VALID,95.6815,VALID,0,VALID,19.7043,VALID,12,VALID,0,
2012-09-27, 00:09:04,VALID,919.663,VALID,0,VALID,95.6205,VALID,0,VALID,19.7043,VALID,4,VALID,0,
2012-09-27, 00:10:04,VALID,919.641,VALID,0,VALID,95.5976,VALID,0,VALID,19.6848,VALID,10,VALID,0,
2012-09-27, 00:11:04,VALID,919.612,VALID,0,VALID,95.6205,VALID,0,VALID,19.6653,VALID,10,VALID,0,
2012-09-27, 00:12:04,VALID,919.611,VALID,0,VALID,95.529,VALID,0,VALID,19.6458,VALID,10,VALID,0,
2012-09-27, 00:13:04,VALID,919.604,VALID,0,VALID,95.5443,VALID,0,VALID,19.6458,VALID,10,VALID,0,
2012-09-27, 00:14:04,VALID,919.607,VALID,0,VALID,95.5595,VALID,0.107441,VALID,19.6263,VALID,10,VALID,0,
2012-09-27, 00:15:04,VALID,919.588,VALID,0,VALID,95.5748,VALID,0,VALID,19.5873,VALID,10,VALID,0,
2012-09-27, 00:16:04,VALID,919.594,VALID,0,VALID,95.6357,VALID,0,VALID,19.5873,VALID,10,VALID,0,
2012-09-27, 00:17:04,VALID,919.537,VALID,0,VALID,95.6434,VALID,0.107441,VALID,19.5873,VALID,10,VALID,0,
2012-09-27, 00:18:04,VALID,919.577,VALID,0,VALID,95.6586,VALID,0,VALID,19.5873,VALID,10,VALID,0,
2012-09-27, 00:19:04,VALID,919.537,VALID,0,VALID,95.6586,VALID,0,VALID,19.5693,VALID,10,VALID,0,
2012-09-27, 00:20:04,VALID,919.507,VALID,0,VALID,95.7044,VALID,0,VALID,19.5498,VALID,10,VALID,0,
2012-09-27, 00:21:04,VALID,919.489,VALID,0,VALID,95.7044,VALID,0,VALID,19.5288,VALID,10,VALID,0,
2012-09-27, 00:22:04,VALID,919.428,VALID,0,VALID,95.7425,VALID,0,VALID,19.5288,VALID,10,VALID,0,
2012-09-27, 00:23:04,VALID,919.41,VALID,0,VALID,95.7654,VALID,0,VALID,19.5093,VALID,10,VALID,0,
2012-09-27, 00:24:04,VALID,919.37,VALID,0,VALID,95.7654,VALID,0,VALID,19.5108,VALID,10,VALID,0,
2012-09-27, 00:25:04,VALID,919.374,VALID,0,VALID,95.7577,VALID,0,VALID,19.5108,VALID,10,VALID,0,
2012-09-27, 00:26:04,VALID,919.341,VALID,0,VALID,95.8187,VALID,0,VALID,19.4913,VALID,10,VALID,0,
2012-09-27, 00:27:04,VALID,919.326,VALID,0,VALID,95.7654,VALID,0,VALID,19.4913,VALID,10,VALID,0,
2012-09-27, 00:28:04,VALID,919.28,VALID,0,VALID,95.7654,VALID,0,VALID,19.4718,VALID,10,VALID,0,
2012-09-27, 00:29:04,VALID,919.273,VALID,0,VALID,95.7882,VALID,0,VALID,19.4313,VALID,10,VALID,0,
2012-09-27, 00:30:04,VALID,919.249,VALID,0,VALID,95.7654,VALID,0,VALID,19.4118,VALID,10,VALID,0,
2012-09-27, 00:31:04,VALID,919.279,VALID,0,VALID,95.8111,VALID,0,VALID,19.4327,VALID,10,VALID,0,
2012-09-27, 00:32:04,VALID,919.266,VALID,0,VALID,95.8492,VALID,0,VALID,19.4313,VALID,10,VALID,0,
2012-09-27, 00:33:04,VALID,919.282,VALID,0,VALID,95.8873,VALID,0.107441,VALID,19.4313,VALID,10,VALID,0,
2012-09-27, 00:34:04,VALID,919.233,VALID,0,VALID,95.8873,VALID,0,VALID,19.4298,VALID,10,VALID,0,
2012-09-27, 00:35:04,VALID,919.256,VALID,0,VALID,95.9026,VALID,0,VALID,19.4523,VALID,10,VALID,0,
2012-09-27, 00:36:04,VALID,919.215,VALID,0,VALID,95.8492,VALID,0,VALID,19.4508,VALID,10,VALID,0,
2012-09-27, 00:37:04,VALID,919.215,VALID,0,VALID,95.8111,VALID,0,VALID,19.4327,VALID,10,VALID,0,
2012-09-27, 00:38:04,VALID,919.174,VALID,0,VALID,95.8111,VALID,0,VALID,19.4118,VALID,10,VALID,0,
2012-09-27, 00:39:04,VALID,919.154,VALID,0,VALID,95.7882,VALID,0,VALID,19.3937,VALID,10,VALID,0,
2012-09-27, 00:40:04,VALID,919.135,VALID,0,VALID,95.8035,VALID,0,VALID,19.3547,VALID,10,VALID,0,
2012-09-27, 00:41:04,VALID,919.137,VALID,0,VALID,95.7958,VALID,0,VALID,19.3533,VALID,10,VALID,0,
2012-09-27, 00:42:04,VALID,919.122,VALID,0,VALID,95.8645,VALID,0,VALID,19.3533,VALID,10,VALID,0,
2012-09-27, 00:43:04,VALID,919.145,VALID,0,VALID,95.8568,VALID,0,VALID,19.3742,VALID,10,VALID,0,
2012-09-27, 00:44:04,VALID,919.129,VALID,0,VALID,95.8492,VALID,0,VALID,19.3742,VALID,341,VALID,0,
2012-09-27, 00:45:04,VALID,919.149,VALID,0,VALID,95.8263,VALID,0,VALID,19.3728,VALID,341,VALID,0,
2012-09-27, 00:46:04,VALID,919.184,VALID,0,VALID,95.7958,VALID,0,VALID,19.3937,VALID,341,VALID,0,
2012-09-27, 00:47:04,VALID,919.198,VALID,0,VALID,95.7654,VALID,0,VALID,19.3937,VALID,341,VALID,0,
2012-09-27, 00:48:04,VALID,919.196,VALID,0,VALID,95.7196,VALID,0,VALID,19.4118,VALID,341,VALID,0,
2012-09-27, 00:49:04,VALID,919.2,VALID,0,VALID,95.6662,VALID,0,VALID,19.4327,VALID,341,VALID,0,
2012-09-27, 00:50:04,VALID,919.2,VALID,0,VALID,95.6357,VALID,0,VALID,19.4327,VALID,341,VALID,0,
2012-09-27, 00:51:04,VALID,919.158,VALID,0,VALID,95.6357,VALID,0,VALID,19.4118,VALID,341,VALID,0,
2012-09-27, 00:52:04,VALID,919.184,VALID,0,VALID,95.6053,VALID,0,VALID,19.4118,VALID,341,VALID,0,
2012-09-27, 00:53:04,VALID,919.169,VALID,0,VALID,95.6281,VALID,0,VALID,19.4313,VALID,341,VALID,0,
2012-09-27, 00:54:04,VALID,919.174,VALID,0,VALID,95.6281,VALID,0,VALID,19.4718,VALID,341,VALID,0,
2012-09-27, 00:55:04,VALID,919.157,VALID,0,VALID,95.6434,VALID,0,VALID,19.4718,VALID,341,VALID,0,
2012-09-27, 00:56:04,VALID,919.167,VALID,0,VALID,95.6967,VALID,0,VALID,19.4913,VALID,341,VALID,0,
2012-09-27, 00:57:04,VALID,919.128,VALID,0,VALID,95.7272,VALID,0,VALID,19.5108,VALID,341,VALID,0,
2012-09-27, 00:58:04,VALID,919.114,VALID,0,VALID,95.5976,VALID,0,VALID,19.4913,VALID,360,VALID,0,
2012-09-27, 00:59:04,VALID,919.107,VALID,0,VALID,95.59,VALID,0,VALID,19.4718,VALID,360,VALID,0,
2012-09-27, 01:00:04,VALID,919.093,VALID,0,VALID,95.5671,VALID,0,VALID,19.4718,VALID,360,VALID,0,
2012-09-27, 01:01:04,VALID,919.103,VALID,0,VALID,95.59,VALID,0,VALID,19.4718,VALID,360,VALID,0,
2012-09-27, 01:02:04,VALID,919.104,VALID,0,VALID,95.6662,VALID,0,VALID,19.4898,VALID,360,VALID,0,
2012-09-27, 01:03:04,VALID,919.128,VALID,0,VALID,95.6739,VALID,0,VALID,19.5303,VALID,7,VALID,0,
2012-09-27, 01:04:04,VALID,919.086,VALID,0,VALID,95.5443,VALID,0,VALID,19.5108,VALID,347,VALID,0,
2012-09-27, 01:05:04,VALID,919.068,VALID,0,VALID,95.5062,VALID,0,VALID,19.4913,VALID,14,VALID,0,
2012-09-27, 01:06:04,VALID,919.05,VALID,0,VALID,95.5367,VALID,0,VALID,19.5108,VALID,14,VALID,0,
2012-09-27, 01:07:04,VALID,919.025,VALID,0,VALID,95.5519,VALID,0,VALID,19.5303,VALID,14,VALID,0,
2012-09-27, 01:08:04,VALID,919.025,VALID,0,VALID,95.468,VALID,0.107441,VALID,19.5693,VALID,14,VALID,0,
2012-09-27, 01:09:04,VALID,918.971,VALID,0,VALID,95.3842,VALID,0,VALID,19.5498,VALID,355,VALID,0,
2012-09-27, 01:10:04,VALID,918.925,VALID,0,VALID,95.3308,VALID,0,VALID,19.5288,VALID,348,VALID,0,
2012-09-27, 01:11:04,VALID,918.91,VALID,0,VALID,95.2622,VALID,0,VALID,19.5303,VALID,357,VALID,0,
2012-09-27, 01:12:04,VALID,918.897,VALID,0,VALID,95.2165,VALID,0,VALID,19.5108,VALID,357,VALID,0,
2012-09-27, 01:13:04,VALID,918.872,VALID,0,VALID,95.1707,VALID,0,VALID,19.5108,VALID,357,VALID,0,
2012-09-27, 01:14:04,VALID,918.866,VALID,0,VALID,95.1707,VALID,0,VALID,19.5303,VALID,18,VALID,0,
2012-09-27, 01:15:04,VALID,918.846,VALID,0,VALID,95.125,VALID,0,VALID,19.5303,VALID,18,VALID,0,
2012-09-27, 01:16:04,VALID,918.815,VALID,0,VALID,95.0335,VALID,0,VALID,19.4898,VALID,18,VALID,0,
2012-09-27, 01:17:04,VALID,918.784,VALID,0,VALID,94.9649,VALID,0,VALID,19.5108,VALID,1,VALID,0,
2012-09-27, 01:18:04,VALID,918.772,VALID,0,VALID,94.9268,VALID,0,VALID,19.4913,VALID,352,VALID,0,
2012-09-27, 01:19:04,VALID,918.782,VALID,0,VALID,94.9573,VALID,0,VALID,19.4718,VALID,352,VALID,0,
2012-09-27, 01:20:04,VALID,918.779,VALID,0,VALID,94.9801,VALID,0,VALID,19.4523,VALID,352,VALID,0,
2012-09-27, 01:21:04,VALID,918.766,VALID,0,VALID,95.1097,VALID,0,VALID,19.4523,VALID,11,VALID,0,
2012-09-27, 01:22:04,VALID,918.756,VALID,0,VALID,95.1936,VALID,0,VALID,19.4523,VALID,11,VALID,0,
2012-09-27, 01:23:04,VALID,918.74,VALID,0,VALID,95.3003,VALID,0,VALID,19.4718,VALID,347,VALID,0,
2012-09-27, 01:24:04,VALID,918.747,VALID,0,VALID,95.3613,VALID,0,VALID,19.4913,VALID,347,VALID,0,
2012-09-27, 01:25:04,VALID,918.748,VALID,0,VALID,95.4375,VALID,0,VALID,19.5108,VALID,21,VALID,0,
2012-09-27, 01:26:04,VALID,918.735,VALID,0,VALID,95.4757,VALID,0,VALID,19.5303,VALID,21,VALID,0,
2012-09-27, 01:27:04,VALID,918.704,VALID,0,VALID,95.5138,VALID,0,VALID,19.5693,VALID,21,VALID,0,
2012-09-27, 01:28:04,VALID,918.723,VALID,0,VALID,95.5443,VALID,0.107441,VALID,19.6083,VALID,21,VALID,0,
2012-09-27, 01:29:04,VALID,918.706,VALID,0,VALID,95.4909,VALID,0,VALID,19.6278,VALID,21,VALID,0,
2012-09-27, 01:30:04,VALID,918.705,VALID,0,VALID,95.4528,VALID,0,VALID,19.6278,VALID,20,VALID,0,
2012-09-27, 01:31:04,VALID,918.701,VALID,0,VALID,95.3689,VALID,0,VALID,19.5873,VALID,9,VALID,0,
2012-09-27, 01:32:04,VALID,918.674,VALID,0,VALID,95.4071,VALID,0,VALID,19.6083,VALID,9,VALID,0,
2012-09-27, 01:33:04,VALID,918.654,VALID,0,VALID,95.4604,VALID,0,VALID,19.6068,VALID,9,VALID,0,
2012-09-27, 01:34:04,VALID,918.629,VALID,0,VALID,95.4223,VALID,0.107441,VALID,19.6263,VALID,9,VALID,0,
2012-09-27, 01:35:04,VALID,918.663,VALID,0,VALID,95.4223,VALID,0,VALID,19.6668,VALID,9,VALID,0,
2012-09-27, 01:36:04,VALID,918.619,VALID,0,VALID,95.4528,VALID,0,VALID,19.6863,VALID,9,VALID,0,
2012-09-27, 01:37:04,VALID,918.613,VALID,0,VALID,95.4528,VALID,0,VALID,19.7058,VALID,9,VALID,0,
2012-09-27, 01:38:04,VALID,918.592,VALID,0,VALID,95.4375,VALID,0,VALID,19.7058,VALID,9,VALID,0,
2012-09-27, 01:39:04,VALID,918.551,VALID,0,VALID,95.4528,VALID,0,VALID,19.7253,VALID,9,VALID,0,
2012-09-27, 01:40:04,VALID,918.552,VALID,0,VALID,95.3994,VALID,0,VALID,19.7253,VALID,9,VALID,0,
2012-09-27, 01:41:04,VALID,918.498,VALID,0,VALID,95.4375,VALID,0,VALID,19.7448,VALID,9,VALID,0,
2012-09-27, 01:42:04,VALID,918.478,VALID,0,VALID,95.3156,VALID,0.107441,VALID,19.7253,VALID,9,VALID,0,
2012-09-27, 01:43:04,VALID,918.466,VALID,0,VALID,95.3003,VALID,0,VALID,19.7238,VALID,9,VALID,0,
2012-09-27, 01:44:04,VALID,918.455,VALID,0,VALID,95.2317,VALID,0,VALID,19.7058,VALID,9,VALID,0,
2012-09-27, 01:45:04,VALID,918.448,VALID,0,VALID,95.2241,VALID,0.107441,VALID,19.7253,VALID,9,VALID,0,
2012-09-27, 01:46:04,VALID,918.419,VALID,0,VALID,95.2088,VALID,0.107441,VALID,19.7043,VALID,19,VALID,0,
2012-09-27, 01:47:04,VALID,918.374,VALID,0,VALID,95.247,VALID,0.107441,VALID,19.7253,VALID,11,VALID,0,
2012-09-27, 01:48:04,VALID,918.344,VALID,0,VALID,95.2088,VALID,0,VALID,19.7253,VALID,11,VALID,0,
2012-09-27, 01:49:04,VALID,918.345,VALID,0,VALID,95.2165,VALID,0,VALID,19.7253,VALID,11,VALID,0,
2012-09-27, 01:50:04,VALID,918.325,VALID,0,VALID,95.186,VALID,0,VALID,19.7253,VALID,11,VALID,0,
2012-09-27, 01:51:04,VALID,918.302,VALID,0,VALID,95.1783,VALID,0,VALID,19.7058,VALID,11,VALID,0,
2012-09-27, 01:52:04,VALID,918.281,VALID,0,VALID,95.1555,VALID,0,VALID,19.7058,VALID,11,VALID,0,
2012-09-27, 01:53:04,VALID,918.302,VALID,0,VALID,95.1174,VALID,0,VALID,19.7058,VALID,11,VALID,0,
2012-09-27, 01:54:04,VALID,918.293,VALID,0,VALID,95.0945,VALID,0,VALID,19.6668,VALID,6,VALID,0,
2012-09-27, 01:55:04,VALID,918.271,VALID,0,VALID,95.1097,VALID,0,VALID,19.6473,VALID,6,VALID,0,
2012-09-27, 01:56:04,VALID,918.276,VALID,0,VALID,95.1783,VALID,0,VALID,19.6473,VALID,6,VALID,0,
2012-09-27, 01:57:04,VALID,918.274,VALID,0,VALID,95.1783,VALID,0,VALID,19.6278,VALID,6,VALID,0,
2012-09-27, 01:58:04,VALID,918.254,VALID,0,VALID,95.2317,VALID,0,VALID,19.6083,VALID,6,VALID,0,
2012-09-27, 01:59:04,VALID,918.296,VALID,0,VALID,95.1479,VALID,0,VALID,19.6083,VALID,6,VALID,0,
2012-09-27, 02:00:04,VALID,918.285,VALID,0,VALID,95.1707,VALID,0,VALID,19.6083,VALID,6,VALID,0,
2012-09-27, 02:01:04,VALID,918.243,VALID,0,VALID,95.1555,VALID,0,VALID,19.5888,VALID,6,VALID,0,
2012-09-27, 02:02:04,VALID,918.273,VALID,0,VALID,95.125,VALID,0,VALID,19.5693,VALID,6,VALID,0,
2012-09-27, 02:03:04,VALID,918.304,VALID,0,VALID,95.1631,VALID,0,VALID,19.5498,VALID,6,VALID,0,
2012-09-27, 02:04:04,VALID,918.282,VALID,0,VALID,95.125,VALID,0,VALID,19.5303,VALID,6,VALID,0,
2012-09-27, 02:05:04,VALID,918.258,VALID,0,VALID,95.1936,VALID,0,VALID,19.4913,VALID,1,VALID,0,
2012-09-27, 02:06:04,VALID,918.263,VALID,0,VALID,95.2775,VALID,0,VALID,19.4913,VALID,350,VALID,0,
2012-09-27, 02:07:04,VALID,918.28,VALID,0,VALID,95.3079,VALID,0,VALID,19.4913,VALID,353,VALID,0,
2012-09-27, 02:08:04,VALID,918.271,VALID,0,VALID,95.4299,VALID,0,VALID,19.4913,VALID,353,VALID,0,
2012-09-27, 02:09:04,VALID,918.253,VALID,0,VALID,95.468,VALID,0,VALID,19.4913,VALID,353,VALID,0,
2012-09-27, 02:10:04,VALID,918.241,VALID,0,VALID,95.5976,VALID,0,VALID,19.4913,VALID,353,VALID,0,
2012-09-27, 02:11:04,VALID,918.262,VALID,0,VALID,95.5976,VALID,0,VALID,19.5303,VALID,353,VALID,0,
2012-09-27, 02:12:04,VALID,918.253,VALID,0,VALID,95.5367,VALID,0,VALID,19.5108,VALID,353,VALID,0,
2012-09-27, 02:13:04,VALID,918.243,VALID,0,VALID,95.5367,VALID,0,VALID,19.4913,VALID,353,VALID,0,
2012-09-27, 02:14:04,VALID,918.242,VALID,0,VALID,95.5443,VALID,0,VALID,19.4718,VALID,353,VALID,0,
2012-09-27, 02:15:04,VALID,918.255,VALID,0,VALID,95.5595,VALID,0,VALID,19.4913,VALID,353,VALID,0,
2012-09-27, 02:16:04,VALID,918.226,VALID,0,VALID,95.5824,VALID,0,VALID,19.4913,VALID,353,VALID,0,
2012-09-27, 02:17:04,VALID,918.22,VALID,0,VALID,95.4985,VALID,0,VALID,19.4718,VALID,353,VALID,0,
2012-09-27, 02:18:04,VALID,918.195,VALID,0,VALID,95.5062,VALID,0,VALID,19.4523,VALID,353,VALID,0,
2012-09-27, 02:19:04,VALID,918.18,VALID,0,VALID,95.5595,VALID,0,VALID,19.4523,VALID,352,VALID,0,
2012-09-27, 02:20:04,VALID,918.223,VALID,0,VALID,95.4985,VALID,0,VALID,19.4523,VALID,352,VALID,0,
2012-09-27, 02:21:04,VALID,918.25,VALID,0,VALID,95.5367,VALID,0,VALID,19.4327,VALID,352,VALID,0,
2012-09-27, 02:22:04,VALID,918.231,VALID,0,VALID,95.5595,VALID,0,VALID,19.4327,VALID,357,VALID,0,
2012-09-27, 02:23:04,VALID,918.228,VALID,0,VALID,95.5748,VALID,0,VALID,19.4537,VALID,357,VALID,0,
2012-09-27, 02:24:04,VALID,918.204,VALID,0,VALID,95.6205,VALID,0,VALID,19.4132,VALID,2,VALID,0,
2012-09-27, 02:25:04,VALID,918.214,VALID,0,VALID,95.6586,VALID,0,VALID,19.3937,VALID,5,VALID,0,
2012-09-27, 02:26:04,VALID,918.236,VALID,0,VALID,95.6434,VALID,0,VALID,19.3742,VALID,3,VALID,0,
2012-09-27, 02:27:04,VALID,918.209,VALID,0,VALID,95.712,VALID,0,VALID,19.3742,VALID,342,VALID,0,
2012-09-27, 02:28:04,VALID,918.197,VALID,0,VALID,95.7501,VALID,0,VALID,19.3937,VALID,342,VALID,0,
2012-09-27, 02:29:04,VALID,918.178,VALID,0,VALID,95.8263,VALID,0,VALID,19.3937,VALID,342,VALID,0,
2012-09-27, 02:30:04,VALID,918.153,VALID,0,VALID,95.8187,VALID,0,VALID,19.3937,VALID,2,VALID,0,
2012-09-27, 02:31:04,VALID,918.164,VALID,0,VALID,95.7958,VALID,0,VALID,19.3937,VALID,2,VALID,0,
2012-09-27, 02:32:04,VALID,918.184,VALID,0,VALID,95.8111,VALID,0,VALID,19.3937,VALID,2,VALID,0,
2012-09-27, 02:33:04,VALID,918.167,VALID,0,VALID,95.834,VALID,0,VALID,19.3937,VALID,340,VALID,0,
2012-09-27, 02:34:04,VALID,918.189,VALID,0,VALID,95.8568,VALID,0,VALID,19.3937,VALID,339,VALID,0,
2012-09-27, 02:35:04,VALID,918.172,VALID,0,VALID,95.9254,VALID,0,VALID,19.3728,VALID,339,VALID,0,
2012-09-27, 02:36:04,VALID,918.122,VALID,0,VALID,95.9102,VALID,0,VALID,19.3742,VALID,339,VALID,0,
2012-09-27, 02:37:04,VALID,918.136,VALID,0,VALID,95.9788,VALID,0,VALID,19.3742,VALID,341,VALID,0,
2012-09-27, 02:38:04,VALID,918.142,VALID,0,VALID,96.0322,VALID,0,VALID,19.3937,VALID,343,VALID,0,
2012-09-27, 02:39:04,VALID,918.118,VALID,0,VALID,96.0627,VALID,0,VALID,19.3937,VALID,343,VALID,0,
2012-09-27, 02:40:04,VALID,918.123,VALID,0,VALID,96.0245,VALID,0,VALID,19.3518,VALID,343,VALID,0,
2012-09-27, 02:41:04,VALID,918.098,VALID,0,VALID,96.0398,VALID,0,VALID,19.4147,VALID,360,VALID,0,
2012-09-27, 02:42:04,VALID,918.103,VALID,0,VALID,96.055,VALID,0,VALID,19.3937,VALID,360,VALID,0,
2012-09-27, 02:43:04,VALID,918.088,VALID,0,VALID,96.116,VALID,0,VALID,19.3937,VALID,360,VALID,0,
2012-09-27, 02:44:04,VALID,918.114,VALID,0,VALID,96.0474,VALID,0,VALID,19.3937,VALID,360,VALID,0,
2012-09-27, 02:45:04,VALID,918.094,VALID,0,VALID,96.0245,VALID,0,VALID,19.3728,VALID,360,VALID,0,
2012-09-27, 02:46:04,VALID,918.074,VALID,0,VALID,96.0245,VALID,0,VALID,19.3937,VALID,360,VALID,0,
2012-09-27, 02:47:04,VALID,918.083,VALID,0,VALID,95.9941,VALID,0,VALID,19.3742,VALID,360,VALID,0,
2012-09-27, 02:48:04,VALID,918.06,VALID,0,VALID,96.055,VALID,0,VALID,19.3728,VALID,360,VALID,0,
2012-09-27, 02:49:04,VALID,918.062,VALID,0,VALID,96.0855,VALID,0,VALID,19.3937,VALID,360,VALID,0,
2012-09-27, 02:50:04,VALID,918.053,VALID,0,VALID,96.0398,VALID,0.107441,VALID,19.3937,VALID,360,VALID,0,
2012-09-27, 02:51:04,VALID,918.059,VALID,0,VALID,96.0855,VALID,0,VALID,19.3937,VALID,360,VALID,0,
2012-09-27, 02:52:04,VALID,918.077,VALID,0,VALID,96.055,VALID,0,VALID,19.3937,VALID,360,VALID,0,
2012-09-27, 02:53:04,VALID,918.067,VALID,0,VALID,96.0855,VALID,0,VALID,19.3937,VALID,360,VALID,0,
2012-09-27, 02:54:04,VALID,918.053,VALID,0,VALID,96.1008,VALID,0,VALID,19.3728,VALID,360,VALID,0,
2012-09-27, 02:55:04,VALID,918.009,VALID,0,VALID,96.1236,VALID,0,VALID,19.4118,VALID,360,VALID,0,
2012-09-27, 02:56:04,VALID,917.985,VALID,0,VALID,96.0627,VALID,0,VALID,19.4118,VALID,360,VALID,0,
2012-09-27, 02:57:04,VALID,917.997,VALID,0,VALID,96.0779,VALID,0,VALID,19.4118,VALID,360,VALID,0,
2012-09-27, 02:58:04,VALID,918.023,VALID,0,VALID,96.0245,VALID,0,VALID,19.4132,VALID,360,VALID,0,
2012-09-27, 02:59:04,VALID,918.034,VALID,0,VALID,95.9864,VALID,0,VALID,19.3923,VALID,360,VALID,0,
2012-09-27, 03:00:04,VALID,918.042,VALID,0,VALID,95.9483,VALID,0,VALID,19.3937,VALID,360,VALID,0,
2012-09-27, 03:01:04,VALID,918.065,VALID,0,VALID,95.9636,VALID,0,VALID,19.3533,VALID,360,VALID,0,
2012-09-27, 03:02:04,VALID,918.055,VALID,0,VALID,96.0017,VALID,0.107441,VALID,19.3742,VALID,360,VALID,0,
2012-09-27, 03:03:04,VALID,918.026,VALID,0,VALID,96.0245,VALID,0,VALID,19.3533,VALID,360,VALID,0,
2012-09-27, 03:04:04,VALID,918.036,VALID,0,VALID,96.0245,VALID,0,VALID,19.3533,VALID,360,VALID,0,
2012-09-27, 03:05:04,VALID,918.026,VALID,0,VALID,96.055,VALID,0,VALID,19.3338,VALID,360,VALID,0,
2012-09-27, 03:06:04,VALID,918.047,VALID,0,VALID,96.0932,VALID,0,VALID,19.3533,VALID,360,VALID,0,
2012-09-27, 03:07:04,VALID,918.033,VALID,0,VALID,96.0703,VALID,0,VALID,19.3937,VALID,360,VALID,0,
2012-09-27, 03:08:04,VALID,918.024,VALID,0,VALID,96.0093,VALID,0.107441,VALID,19.3338,VALID,360,VALID,0,
2012-09-27, 03:09:04,VALID,917.996,VALID,0,VALID,95.834,VALID,0,VALID,19.2948,VALID,360,VALID,0,
2012-09-27, 03:10:04,VALID,917.972,VALID,0,VALID,96.0627,VALID,0,VALID,19.3157,VALID,360,VALID,0,
2012-09-27, 03:11:04,VALID,917.987,VALID,0,VALID,96.0169,VALID,0,VALID,19.2962,VALID,360,VALID,0,
2012-09-27, 03:12:04,VALID,917.997,VALID,0,VALID,95.9864,VALID,0,VALID,19.2962,VALID,360,VALID,0,
2012-09-27, 03:13:04,VALID,918.004,VALID,0,VALID,96.0093,VALID,0,VALID,19.2363,VALID,360,VALID,0,
2012-09-27, 03:14:04,VALID,918.069,VALID,0,VALID,95.9941,VALID,0,VALID,19.1973,VALID,358,VALID,0,
2012-09-27, 03:15:04,VALID,918.009,VALID,0,VALID,96.0322,VALID,0,VALID,19.1973,VALID,355,VALID,0,
2012-09-27, 03:16:04,VALID,918.011,VALID,0,VALID,96.0855,VALID,0,VALID,19.1778,VALID,355,VALID,0,
2012-09-27, 03:17:04,VALID,917.977,VALID,0,VALID,96.1008,VALID,0,VALID,19.1583,VALID,2,VALID,0,
2012-09-27, 03:18:04,VALID,917.963,VALID,0,VALID,96.116,VALID,0,VALID,19.1597,VALID,1,VALID,0,
2012-09-27, 03:19:04,VALID,917.944,VALID,0,VALID,96.1008,VALID,0,VALID,19.1402,VALID,1,VALID,0,
2012-09-27, 03:20:04,VALID,917.955,VALID,0,VALID,96.1618,VALID,0.107441,VALID,19.1193,VALID,1,VALID,0,
2012-09-27, 03:21:04,VALID,917.964,VALID,0,VALID,96.1541,VALID,0.107441,VALID,19.0998,VALID,1,VALID,0,
2012-09-27, 03:22:04,VALID,917.975,VALID,0,VALID,96.2151,VALID,0,VALID,19.0998,VALID,1,VALID,0,
2012-09-27, 03:23:04,VALID,917.924,VALID,0,VALID,96.2228,VALID,0,VALID,19.0998,VALID,1,VALID,0,
2012-09-27, 03:24:04,VALID,917.956,VALID,0,VALID,96.2609,VALID,0,VALID,19.0803,VALID,1,VALID,0,
2012-09-27, 03:25:04,VALID,917.905,VALID,0,VALID,96.2609,VALID,0,VALID,19.1207,VALID,1,VALID,0,
2012-09-27, 03:26:04,VALID,917.935,VALID,0,VALID,96.2914,VALID,0.107441,VALID,19.0608,VALID,1,VALID,0,
2012-09-27, 03:27:04,VALID,917.93,VALID,0,VALID,96.299,VALID,0,VALID,19.0817,VALID,1,VALID,0,
2012-09-27, 03:28:04,VALID,917.901,VALID,0,VALID,96.3829,VALID,0.107441,VALID,19.0803,VALID,354,VALID,0,
2012-09-27, 03:29:04,VALID,917.95,VALID,0,VALID,96.3829,VALID,0,VALID,19.0817,VALID,18,VALID,0,
2012-09-27, 03:30:04,VALID,917.928,VALID,0,VALID,96.4057,VALID,0.107441,VALID,19.0803,VALID,19,VALID,0,
2012-09-27, 03:31:04,VALID,917.909,VALID,0,VALID,96.4362,VALID,0,VALID,19.0803,VALID,19,VALID,0,
2012-09-27, 03:32:04,VALID,917.896,VALID,0,VALID,96.4743,VALID,0,VALID,19.1012,VALID,342,VALID,0,
2012-09-27, 03:33:04,VALID,917.937,VALID,0,VALID,96.4896,VALID,0,VALID,19.0998,VALID,342,VALID,0,
2012-09-27, 03:34:04,VALID,917.95,VALID,0,VALID,96.5124,VALID,0,VALID,19.1388,VALID,342,VALID,0,
2012-09-27, 03:35:04,VALID,917.95,VALID,0,VALID,96.5124,VALID,0,VALID,19.1388,VALID,342,VALID,0,
2012-09-27, 03:36:04,VALID,917.95,VALID,0,VALID,96.5048,VALID,0,VALID,19.1778,VALID,342,VALID,0,
2012-09-27, 03:37:04,VALID,917.952,VALID,0,VALID,96.4896,VALID,0,VALID,19.1792,VALID,342,VALID,0,
2012-09-27, 03:38:04,VALID,917.972,VALID,0,VALID,96.4819,VALID,0,VALID,19.1778,VALID,342,VALID,0,
2012-09-27, 03:39:04,VALID,917.986,VALID,0,VALID,96.4286,VALID,0,VALID,19.1987,VALID,342,VALID,0,
2012-09-27, 03:40:04,VALID,917.969,VALID,0,VALID,96.4667,VALID,0,VALID,19.1987,VALID,313,VALID,0,
2012-09-27, 03:41:04,VALID,917.938,VALID,0,VALID,96.4591,VALID,0,VALID,19.1792,VALID,313,VALID,0,
2012-09-27, 03:42:04,VALID,917.967,VALID,0,VALID,96.5124,VALID,0,VALID,19.1987,VALID,313,VALID,0,
2012-09-27, 03:43:04,VALID,917.954,VALID,0,VALID,96.5124,VALID,0,VALID,19.1792,VALID,313,VALID,0,
2012-09-27, 03:44:04,VALID,917.968,VALID,0,VALID,96.5429,VALID,0,VALID,19.1987,VALID,313,VALID,0,
2012-09-27, 03:45:04,VALID,918.005,VALID,0,VALID,96.5277,VALID,0,VALID,19.1987,VALID,313,VALID,0,
2012-09-27, 03:46:04,VALID,918.012,VALID,0,VALID,96.5506,VALID,0,VALID,19.1778,VALID,313,VALID,0,
2012-09-27, 03:47:04,VALID,918,VALID,0,VALID,96.5277,VALID,0,VALID,19.1987,VALID,348,VALID,0,
2012-09-27, 03:48:04,VALID,917.978,VALID,0,VALID,96.5277,VALID,0,VALID,19.1987,VALID,355,VALID,0,
2012-09-27, 03:49:04,VALID,917.957,VALID,0,VALID,96.5201,VALID,0,VALID,19.1792,VALID,355,VALID,0,
2012-09-27, 03:50:04,VALID,917.997,VALID,0,VALID,96.4972,VALID,0,VALID,19.1597,VALID,357,VALID,0,
2012-09-27, 03:51:04,VALID,917.961,VALID,0,VALID,96.4819,VALID,0,VALID,19.1597,VALID,359,VALID,0,
2012-09-27, 03:52:04,VALID,917.96,VALID,0,VALID,96.4743,VALID,0,VALID,19.1193,VALID,359,VALID,0,
2012-09-27, 03:53:04,VALID,917.94,VALID,0,VALID,96.5124,VALID,0,VALID,19.1402,VALID,328,VALID,0,
2012-09-27, 03:54:04,VALID,917.939,VALID,0,VALID,96.5201,VALID,0,VALID,19.1597,VALID,2,VALID,0,
2012-09-27, 03:55:04,VALID,917.946,VALID,0,VALID,96.5201,VALID,0,VALID,19.1402,VALID,348,VALID,0,
2012-09-27, 03:56:04,VALID,917.944,VALID,0,VALID,96.5201,VALID,0,VALID,19.1402,VALID,348,VALID,0,
2012-09-27, 03:57:04,VALID,917.926,VALID,0,VALID,96.5429,VALID,0,VALID,19.1207,VALID,351,VALID,0,
2012-09-27, 03:58:04,VALID,917.96,VALID,0,VALID,96.5506,VALID,0,VALID,19.1207,VALID,351,VALID,0,
2012-09-27, 03:59:04,VALID,917.957,VALID,0,VALID,96.5658,VALID,0,VALID,19.1207,VALID,351,VALID,0,
2012-09-27, 04:00:04,VALID,917.946,VALID,0,VALID,96.5963,VALID,0,VALID,19.1207,VALID,351,VALID,0,